STAR ONE C4 (40733 NORAD) Tracking and Keplerian Element Data

This shows tracking and keplerian element data for the satellite.

Feedback or suggestion? Click here.




ElementValue
Catalog40733
NameSTAR ONE C4
Epoch Orbit3112
Epoch Day12.56882846
Epoch Year2024
RAAN316.1012
Inclination0.0388
Eccentricity0.0002588
Argument of Perigee8.8526
Mean Anonmoly281.3781
Mean Motion1.00270088
Decay Rate-2.55E-06
L11 40733U 15034B 24012.56882846 -.00000255 00000+0 00000+0 0 9997
L22 40733 0.0388 316.1012 0002588 8.8526 281.3781 1.00270088 31127



Live tracking and technical data element details for STAR ONE C4 (NORAD 40733). STAR ONE C4 can be tracked NOW for your location showing map with azimuth and elevation plus other details from your city location.







IsCatalogInMostPopularTable: catalog: 40733, numindb: 818
Update: records affected: 1



GetName: 40733 STAR ONE C4

Hit Count: updated at: Wed, 21 Feb 2024 09:15:24 GMT